Location: Llanfihangel-Ystrad
(52.1833°N, 4.1667°W)
Time: 03:56:08
(UTC+00:00)

CZ-2C R/B - Pass Details

Date: 17 February 2020
Orbit: 667 x 785 km, 98.1° (Epoch: 02 April)

Event Time Altitude Azimuth Distance (km) Brightness Sun altitude
Rises 06:16:56 0° 6° (N) 3,290 5.8 -11.7°
Reaches altitude 10° 06:19:44 10° 352° (N) 2,357 4.9 -11.2°
Maximum altitude 06:23:37 22° 304° (NW) 1,670 3.7 -10.7°
Enters shadow 06:27:11 11° 257° (WSW) 2,242 4.3 -10.1°
